FENGYUN 1C DEB, 32110

Orbit data source: Space-Track

FENGYUN 1C DEB, 32110 is space debris in SSO originally from a launch on Mon, 10 May 1999 UTC launched from the Taiyaun Space Center, China (TSC). Fengyun 1C debris stems from the Chinese weather satellite Fengyun-1C, which was intentionally destroyed by a Chinese anti-satellite missile in 2007. This event dramatically increased the amount of space debris, with thousands of trackable fragments posing hazards to satellites and human spaceflight. The Fengyun 1C debris cloud has become a focal point in discussions about space sustainability and the need for international regulations to prevent the creation of new debris.

Loading next visibility...
Identifier
32110, 1999-025CRC
Orbit
SSO
Country
Flag of CNCN / PRC
Related business
Manufacturer
Unknown
Mission
Spacecraft
Bus & Motor
Unknown
Mass
Unknown
Launch date (UTC)
1999-05-10 (27 years ago)
Launch vehicle
Unknown
Launch site
Taiyaun Space Center, China (TSC)
Object type
Payload
Rocket body
Debris
Shape & HBR
Unknown shape, 0.1 m
Radar Cross Section
Small (<0.1 m²)

Expand to show TLE details & history
Last TLE update: 4 days ago

TLE from 4 days ago
0 FENGYUN 1C DEB
1 32110U 99025CRC 25308.93356142  .00003834  00000-0  15419-2 0  9993
2 32110  99.5438 114.5989 0033717 115.7427  37.7868 14.28463999638485
Epoch: 2025-11-04T22:24Z
TLE epoch observation values (Epoch: 2025-11-04T22:24:19.706Z)
Latitude
25.87727°
Longitude
-81.24362°
Altitude
780.897 km
Speed
7.476 km/s
True Right ascension
19h 57m 00s
True Declination
25° 44' 35"
Sunlit
Object was in daylight at epoch
Visualization orbit readout
Latitude
Unknown
Longitude
Unknown
Altitude
Unknown
Speed
Unknown
Apparent Right ascension
Unknown
Apparent Declination
Unknown
Sunlit
N/A
Visualization observer readout
Local Sidereal Time
01:22:28
Azimuth
Unknown
Elevation
Unknown
Doppler factor
Unknown
Orbital elements
Apogee altitude
818.241 km
Perigee altitude
769.876 km
Semi-major axis
7,172.196 km
Eccentricity
0.00337
Inclination
99.5438°
RAAN
114.5989°
Arg. of periapsis
115.7427°
True anomaly
38.02433°
Mean anomaly
37.7868°
Eccentric anomaly
37.90548°
Mean motion
3.57326 °/min
Orbital period
100.75 mins
BSTAR
0.0015419
Loading maneuver chart data...
Computing Atmospheric mass density...

Documentation

Showing up to 5 results
|